Flag for Austria Weather past 2 weeks in Perg, Upper Austria, Austria

Now
65 °F

Mild.


Feels Like: 65 °F
Forecast: 46 / 64 °F
Wind: 1 mph from South

Location: Amstetten

Current Time: Oct 2, 2014 at 1:32:42 PM

Latest Report: Oct 2, 2014 at 1:00 PM


Visibility: N/A

Pressure: 30.37 "Hg

Humidity: 72%

Dew point: 56 °F

Location of PergLocation

Historic Weather in Perg — Graph

°F

Perg temperature yesterday

Maximum temperature yesterday: 62 °F (at 2:00 PM)
Minimum temperature yesterday: 59 °F (at 1:00 AM)
Average temperature yesterday: 61 °F

Past Weeks' High & Low Weather Summary

 TemperatureHumidityPressure
High76 °F (Sep 17, 4:00 PM)100% (Sep 24, 8:00 AM)30.42 "Hg (Sep 24, 8:00 AM)
Low37 °F (Sep 24, 7:00 AM)40% (Sep 17, 5:00 PM)29.86 "Hg (Sep 22, 1:00 AM)
Average58 °F87%30.14 "Hg
* Reported Sep 17 12:00 Noon — Oct 2 12:00 Noon, Perg, Weather by CustomWeather, © 2014

Note: Actual official high and low records may vary slightly from our data, if they occured in-between our weather recording intervals... More about our weather records

Advertising

Perg weather history for previous 24 hours

 ConditionsComfort  
Time TempWeatherWind HumidityBarometerVisibility
12:00 PM
Oct 2
63 °FMild.1 mph79%30.38 "HgN/A
11:00 AM62 °FCool.No wind87%30.38 "HgN/A
10:00 AM60 °FCool.1 mph91%30.39 "HgN/A
9:00 AM59 °FCool.1 mph94%30.39 "HgN/A
8:00 AM57 °FPartly sunny.1 mph100%30.38 "HgN/A
7:00 AM57 °FCool.1 mph98%30.36 "HgN/A
6:00 AM58 °FCool.1 mph99%30.35 "HgN/A
5:00 AM58 °FCool.1 mph99%30.34 "HgN/A
4:00 AM58 °FCool.No wind99%30.34 "HgN/A
3:00 AM59 °FCool.1 mph98%30.33 "HgN/A
2:00 AM59 °FCool.1 mph98%30.33 "HgN/A
1:00 AM60 °FCool.1 mph98%30.32 "HgN/A
12:00 AM60 °FCool.1 mph98%30.31 "HgN/A
11:00 PM
Oct 1
60 °FCool.1 mph96%30.31 "HgN/A
10:00 PM60 °FCool.1 mph97%30.30 "HgN/A
9:00 PM60 °FCool.1 mph99%30.29 "HgN/A
8:00 PM60 °FCool.No wind98%30.29 "HgN/A
7:00 PM60 °FFog.1 mph99%30.28 "HgN/A
6:00 PM61 °FFog.1 mph97%30.28 "HgN/A
5:00 PM62 °FCool.1 mph96%30.27 "HgN/A
4:00 PM62 °FFog.1 mph96%30.27 "HgN/A
3:00 PM62 °FFog.1 mph94%30.27 "HgN/A
2:00 PM62 °FCool.1 mph94%30.28 "HgN/A
1:00 PM62 °FCool.1 mph95%30.29 "HgN/A
Weather by CustomWeather, © 2014

See weather overviewHow to use our weather pages